Weather History for Pine Bluffs Muni, Pine Bluffs, WY

Change the Weather History Date:

Thursday, April 24, 2014

  Actual Average (KCYS) Record (KCYS)
Temperature  
Mean Temperature 47 °F 45 °F  
Max Temperature 64 °F 58 °F 80 °F (2012)
Min Temperature 30 °F 33 °F 5 °F (1873)
Degree Days  
Heating Degree Days 18 20  
Month to date heating degree days 554  
Since 1 July heating degree days 6474  
Cooling Degree Days 0 0  
Month to date cooling degree days 0  
Year to date cooling degree days 0  
Moisture  
Dew Point 18 °F    
Average Humidity 33    
Maximum Humidity 60    
Minimum Humidity 17    
Precipitation  
Precipitation 0.00 in 0.07 in 2.45 in (1929)
Month to date precipitation 1.37  
Year to date precipitation 3.22  
Snow  
Snow 0.00 in 0.30 in 12.00 in (1942)
Month to date snowfall 8.8  
Since 1 July snowfall 56.6  
Snow Depth -    
Sea Level Pressure  
Sea Level Pressure 29.93 in    
Wind  
Wind Speed 14 mph (West)    
Max Wind Speed 25 mph    
Max Gust Speed 36 mph    
Visibility 10 miles    
Events      
T = Trace of Precipitation, MM = Missing Value Source: NWS Daily Summary

Daily Weather History Graph

Daily Weather History Graph

Search for Another Location

Airport:

Trip Planner

Search our weather history database for the weather conditions in past years. The results will help you decide how hot, cold, wet, or windy it might be!

Date:

Astronomy

Apr. 24, 2014 Rise Set
Actual Time 6:03 AM MDT 7:46 PM MDT
Civil Twilight 5:34 AM MDT 8:15 PM MDT
Nautical Twilight 4:58 AM MDT 8:51 PM MDT
Astronomical Twilight 4:21 AM MDT 9:29 PM MDT
Moon 3:19 AM MDT (4/24) 3:01 PM MDT (4/24)
Length of Visible Light 14h 41m
Length of Day
13h 42m
Waning Crescent, 24% of the Moon is Illuminated
Apr 24
Waning Crescent
Apr 29
New
May 6
First Quarter
May 14
Full
May 21
Last Quarter

Hourly Weather History & Observations

Time (MDT) Temp. Windchill Dew Point Humidity Pressure Visibility Wind Dir Wind Speed Gust Speed Precip Events Conditions
12:15 AM 44.6 °F 36.9 °F 8.6 °F 23% 29.95 in 10.0 mi NNW 18.4 mph 27.6 mph N/A   Clear
12:35 AM 42.8 °F 35.4 °F 8.6 °F 25% 29.94 in 10.0 mi NW 15.0 mph - N/A   Clear
12:55 AM 41.0 °F 33.9 °F 10.4 °F 29% 29.94 in 10.0 mi NNW 12.7 mph - N/A   Clear
1:15 AM 41.0 °F 33.9 °F 10.4 °F 29% 29.93 in 10.0 mi NNW 12.7 mph 19.6 mph N/A   Clear
1:35 AM 39.2 °F 32.0 °F 10.4 °F 31% 29.95 in 10.0 mi NW 11.5 mph - N/A   Clear
1:55 AM 37.4 °F 28.5 °F 12.2 °F 36% 29.94 in 10.0 mi NW 15.0 mph - N/A   Clear
2:15 AM 37.4 °F 28.9 °F 12.2 °F 36% 29.94 in 10.0 mi NW 13.8 mph 21.9 mph N/A   Clear
2:35 AM 35.6 °F 27.1 °F 12.2 °F 38% 29.95 in 10.0 mi NW 12.7 mph - N/A   Clear
2:55 AM 33.8 °F 26.4 °F 12.2 °F 41% 29.96 in 10.0 mi NW 9.2 mph - N/A   Clear
3:15 AM 32.0 °F 24.2 °F 12.2 °F 44% 29.97 in 10.0 mi WNW 9.2 mph - N/A   Clear
3:35 AM 32.0 °F 23.6 °F 14.0 °F 48% 29.97 in 10.0 mi WNW 10.4 mph - N/A   Clear
3:55 AM 32.0 °F 22.5 °F 14.0 °F 48% 29.97 in 10.0 mi WNW 12.7 mph - N/A   Clear
4:15 AM 33.8 °F 23.9 °F 14.0 °F 44% 29.97 in 10.0 mi WNW 15.0 mph - N/A   Clear
4:35 AM 33.8 °F 23.9 °F 15.8 °F 48% 29.97 in 10.0 mi WNW 15.0 mph - N/A   Clear
4:55 AM 33.8 °F 23.5 °F 15.8 °F 48% 29.97 in 10.0 mi WNW 16.1 mph - N/A   Clear
5:15 AM 32.0 °F 22.1 °F 17.6 °F 55% 29.97 in 10.0 mi WNW 13.8 mph - N/A   Clear
5:35 AM 32.0 °F 22.5 °F 17.6 °F 55% 29.97 in 10.0 mi WNW 12.7 mph - N/A   Clear
5:55 AM 30.2 °F 21.9 °F 17.6 °F 60% 29.97 in 10.0 mi West 9.2 mph - N/A   Clear
6:15 AM 32.0 °F 23.0 °F 17.6 °F 55% 29.98 in 10.0 mi WNW 11.5 mph - N/A   Clear
6:35 AM 32.0 °F 22.5 °F 17.6 °F 55% 29.98 in 10.0 mi WNW 12.7 mph - N/A   Clear
6:55 AM 32.0 °F 24.8 °F 19.4 °F 60% 29.98 in 10.0 mi West 8.1 mph - N/A   Clear
7:15 AM 33.8 °F 25.8 °F 19.4 °F 56% 29.99 in 10.0 mi West 10.4 mph - N/A   Clear
7:35 AM 37.4 °F 28.9 °F 19.4 °F 48% 30.00 in 10.0 mi West 13.8 mph 19.6 mph N/A   Clear
7:55 AM 39.2 °F 29.8 °F 19.4 °F 45% 29.99 in 10.0 mi West 18.4 mph 24.2 mph N/A   Clear
8:15 AM 41.0 °F 32.5 °F 19.4 °F 42% 30.00 in 10.0 mi West 17.3 mph 26.5 mph N/A   Clear
8:35 AM 44.6 °F 36.6 °F 19.4 °F 37% 29.99 in 10.0 mi WNW 19.6 mph 26.5 mph N/A   Clear
8:55 AM 46.4 °F 37.9 °F 17.6 °F 32% 30.00 in 10.0 mi WNW 25.3 mph 32.2 mph N/A   Clear
9:15 AM 46.4 °F 38.1 °F 17.6 °F 32% 30.00 in 10.0 mi WNW 24.2 mph 33.4 mph N/A   Clear
9:35 AM 48.2 °F - 17.6 °F 30% 30.00 in 10.0 mi WNW 23.0 mph 29.9 mph N/A   Clear
9:55 AM 50.0 °F - 17.6 °F 28% 29.99 in 10.0 mi WNW 24.2 mph 32.2 mph N/A   Clear
10:15 AM 50.0 °F - 17.6 °F 28% 29.98 in 10.0 mi West 24.2 mph 35.7 mph N/A   Clear
10:35 AM 51.8 °F - 15.8 °F 24% 29.98 in 10.0 mi WNW 23.0 mph 32.2 mph N/A   Clear
10:55 AM 51.8 °F - 12.2 °F 21% 29.98 in 10.0 mi WNW 18.4 mph 28.8 mph N/A   Clear
11:15 AM 53.6 °F - 14.0 °F 21% 29.98 in 10.0 mi WNW 20.7 mph 29.9 mph N/A   Clear
11:35 AM 53.6 °F - 17.6 °F 24% 29.97 in 10.0 mi West 18.4 mph 26.5 mph N/A   Clear
11:55 AM 55.4 °F - 15.8 °F 21% 29.96 in 10.0 mi WNW 23.0 mph 32.2 mph N/A   Clear
12:15 PM 57.2 °F - 15.8 °F 20% 29.95 in 10.0 mi WNW 23.0 mph 32.2 mph N/A   Clear
12:35 PM 57.2 °F - 15.8 °F 20% 29.94 in 10.0 mi WNW 17.3 mph 29.9 mph N/A   Clear
12:55 PM 59.0 °F - 14.0 °F 17% 29.92 in 10.0 mi WNW 21.9 mph 26.5 mph N/A   Clear
1:15 PM 57.2 °F - 14.0 °F 18% 29.92 in 10.0 mi West 12.7 mph 26.5 mph N/A   Clear
1:35 PM 59.0 °F - 15.8 °F 19% 29.91 in 10.0 mi WNW 18.4 mph 24.2 mph N/A   Clear
1:55 PM 59.0 °F - 17.6 °F 20% 29.91 in 10.0 mi West 15.0 mph 20.7 mph N/A   Clear
2:15 PM 60.8 °F - 17.6 °F 19% 29.90 in 10.0 mi WNW 11.5 mph 19.6 mph N/A   Clear
2:35 PM 60.8 °F - 17.6 °F 19% 29.89 in 10.0 mi NW 17.3 mph 21.9 mph N/A   Clear
2:55 PM 60.8 °F - 17.6 °F 19% 29.88 in 10.0 mi NW 17.3 mph 25.3 mph N/A   Clear
3:15 PM 62.6 °F - 19.4 °F 19% 29.87 in 10.0 mi WNW 17.3 mph 23.0 mph N/A   Clear
3:35 PM 60.8 °F - 17.6 °F 19% 29.86 in 10.0 mi NNW 6.9 mph - N/A   Clear
3:55 PM 62.6 °F - 19.4 °F 19% 29.86 in 10.0 mi NW 10.4 mph 18.4 mph N/A   Clear
4:15 PM 64.4 °F - 19.4 °F 18% 29.86 in 10.0 mi SW 15.0 mph 20.7 mph N/A   Clear
4:35 PM 62.6 °F - 17.6 °F 18% 29.86 in 10.0 mi SW 11.5 mph 16.1 mph N/A   Clear
4:55 PM 62.6 °F - 19.4 °F 19% 29.86 in 10.0 mi South 9.2 mph - N/A   Scattered Clouds
5:15 PM 62.6 °F - 19.4 °F 19% 29.86 in 10.0 mi SW 16.1 mph 19.6 mph N/A   Scattered Clouds
5:35 PM 60.8 °F - 19.4 °F 20% 29.86 in 10.0 mi SW 13.8 mph 21.9 mph N/A   Scattered Clouds
5:55 PM 59.0 °F - 21.2 °F 23% 29.86 in 10.0 mi SW 11.5 mph - N/A   Mostly Cloudy
6:15 PM 60.8 °F - 21.2 °F 22% 29.87 in 10.0 mi West 10.4 mph - N/A   Mostly Cloudy
6:35 PM 59.0 °F - 21.2 °F 23% 29.87 in 10.0 mi West 4.6 mph - N/A   Overcast
6:55 PM 59.0 °F - 21.2 °F 23% 29.88 in 10.0 mi WSW 5.8 mph - N/A   Overcast
7:15 PM 59.0 °F - 21.2 °F 23% 29.89 in 10.0 mi SW 4.6 mph - N/A   Overcast
7:35 PM 57.2 °F - 23.0 °F 27% 29.90 in 10.0 mi WSW 18.4 mph 24.2 mph N/A   Overcast
7:55 PM 55.4 °F - 23.0 °F 29% 29.89 in 10.0 mi WSW 10.4 mph - N/A   Mostly Cloudy
8:15 PM 53.6 °F - 23.0 °F 30% 29.89 in 10.0 mi Calm Calm - N/A   Mostly Cloudy
8:35 PM 53.6 °F - 24.8 °F 33% 29.89 in 7.0 mi SW 5.8 mph - N/A   Overcast
8:55 PM 50.0 °F - 26.6 °F 40% 29.90 in 10.0 mi SSW 9.2 mph - N/A   Overcast
9:15 PM 48.2 °F - 26.6 °F 43% 29.90 in 10.0 mi SSW 10.4 mph - N/A   Scattered Clouds
9:35 PM 46.4 °F 41.1 °F 24.8 °F 43% 29.90 in 10.0 mi SSW 11.5 mph - N/A   Clear
9:55 PM 48.2 °F - 23.0 °F 37% 29.90 in 10.0 mi SSW 13.8 mph - N/A   Clear
10:15 PM 46.4 °F 40.4 °F 24.8 °F 43% 29.91 in 10.0 mi SSW 13.8 mph - N/A   Clear
10:35 PM 44.6 °F 39.2 °F 26.6 °F 49% 29.91 in 10.0 mi SSW 10.4 mph - N/A   Clear
10:55 PM 44.6 °F 39.2 °F 26.6 °F 49% 29.91 in 10.0 mi SW 10.4 mph - N/A   Clear
11:15 PM 48.2 °F - 24.8 °F 40% 29.91 in 10.0 mi WSW 9.2 mph - N/A   Clear
11:35 PM 46.4 °F 41.5 °F 26.6 °F 46% 29.91 in 10.0 mi West 10.4 mph - N/A   Scattered Clouds
11:55 PM 48.2 °F - 26.6 °F 43% 29.91 in 10.0 mi West 10.4 mph - N/A   Scattered Clouds